Cordova, AK

7:49 AM AKST on January 22, 2018 (GMT -0900)
Cordova-Smith

Weather History for PACV - January, 2013

Change the Weather History Date:

Tuesday, January 15, 2013

  Actual Average Record
Temperature  
Mean Temperature 32 °F -  
Max Temperature 37 °F 31 °F 48 °F (2018)
Min Temperature 28 °F 18 °F -18 °F (1951)
Degree Days  
Heating Degree Days 32    
Moisture  
Dew Point 32 °F    
Average Humidity 96    
Maximum Humidity 100    
Minimum Humidity 92    
Precipitation  
Precipitation 0.02 in - - ()
Sea Level Pressure  
Sea Level Pressure 30.14 in    
Wind  
Wind Speed 2 mph (ESE)    
Max Wind Speed 6 mph    
Max Gust Speed -    
Visibility 5 miles    
Events Fog , Rain    
Averages and records for this station are not official NWS values.
T = Trace of Precipitation, MM = Missing Value Source: NWS Daily Summary

Daily Weather History Graph

Daily Weather History Graph

Search for Another Location

Airport or City:

Trip Planner

Search our weather history database for the weather conditions in past years. The results will help you decide how hot, cold, wet, or windy it might be!

Date:

Astronomy

Jan. 15, 2013 Rise Set
Actual Time 9:32 AM AKST 4:11 PM AKST
Civil Twilight 8:38 AM AKST 5:05 PM AKST
Nautical Twilight 7:43 AM AKST 5:59 PM AKST
Astronomical Twilight 6:52 AM AKST 6:50 PM AKST
Moon 10:13 AM AKST (1/15) 10:49 PM AKST (1/15)
Length of Visible Light 8h 26m
Length of Day
6h 38m
Waxing Crescent, 20% of the Moon is Illuminated
Jan 15
Waxing Crescent
Jan 18
First Quarter
Jan 26
Full
Feb 3
Last Quarter
Feb 9
New

Hourly Weather History & Observations

Time (AKST) Temp. Windchill Dew Point Humidity Pressure Visibility Wind Dir Wind Speed Gust Speed Precip Events Conditions
12:34 AM 37.4 °F 33.8 °F 37.4 °F 100% 30.03 in 2.5 mi ESE 4.6 mph - N/A   Overcast
12:41 AM 37.4 °F 33.8 °F 37.4 °F 100% 30.03 in 6.0 mi ESE 4.6 mph - N/A   Overcast
12:53 AM 37.9 °F 34.4 °F 37.0 °F 97% 30.03 in 10.0 mi ESE 4.6 mph - N/A   Overcast
1:04 AM 37.4 °F 32.8 °F 37.4 °F 100% 30.03 in 9.0 mi ESE 5.8 mph - N/A   Overcast
1:53 AM 37.9 °F 34.4 °F 37.0 °F 97% 30.03 in 4.0 mi ESE 4.6 mph - 0.01 in Rain Light Rain
2:38 AM 37.4 °F 34.9 °F 37.4 °F 100% 30.03 in 7.0 mi ESE 3.5 mph - 0.00 in   Overcast
3:53 AM 37.9 °F 34.4 °F 36.0 °F 93% 30.03 in 10.0 mi East 4.6 mph - 0.01 in   Overcast
4:46 AM 37.4 °F 34.9 °F 35.6 °F 93% 30.02 in 10.0 mi ENE 3.5 mph - 0.00 in   Overcast
4:53 AM 37.9 °F 35.5 °F 36.0 °F 93% 30.02 in 10.0 mi East 3.5 mph - 0.00 in   Overcast
5:53 AM 37.0 °F - 36.0 °F 96% 30.03 in 10.0 mi Calm Calm - N/A   Overcast
6:53 AM 37.0 °F - 36.0 °F 96% 30.04 in 10.0 mi Calm Calm - 0.00 in   Overcast
7:15 AM 35.6 °F - 35.6 °F 100% 30.05 in 7.0 mi Calm Calm - N/A   Overcast
7:53 AM 36.0 °F - 35.1 °F 97% 30.06 in 10.0 mi Calm Calm - N/A   Overcast
8:16 AM 35.6 °F - 35.6 °F 100% 30.06 in 10.0 mi Calm Calm - N/A   Overcast
8:53 AM 35.1 °F - 34.0 °F 96% 30.07 in 10.0 mi Calm Calm - N/A   Overcast
9:53 AM 34.0 °F - 33.1 °F 96% 30.09 in 3.0 mi Calm Calm - N/A   Mostly Cloudy
10:36 AM 33.8 °F - 32.0 °F 93% 30.10 in 10.0 mi Calm Calm - N/A   Overcast
10:53 AM 33.1 °F - 32.0 °F 96% 30.11 in 10.0 mi Calm Calm - N/A   Overcast
11:20 AM 33.8 °F - 33.8 °F 100% 30.11 in 10.0 mi Calm Calm - N/A   Overcast
11:35 AM 33.8 °F - 32.0 °F 93% 30.11 in 10.0 mi Calm Calm - N/A   Overcast
11:39 AM 33.8 °F - 33.8 °F 100% 30.11 in 2.5 mi Calm Calm - N/A   Overcast
11:46 AM 33.8 °F - 33.8 °F 100% 30.12 in 10.0 mi Calm Calm - N/A Fog Patches of Fog
11:53 AM 35.1 °F - 34.0 °F 96% 30.12 in 10.0 mi Calm Calm - N/A Fog Patches of Fog
12:53 PM 35.1 °F - 34.0 °F 96% 30.14 in 10.0 mi Calm Calm - N/A   Overcast
1:17 PM 35.6 °F - 33.8 °F 93% 30.14 in 1.0 mi Calm Calm - N/A   Mist
1:20 PM 35.6 °F - 33.8 °F 93% 30.14 in 0.8 mi Calm Calm - N/A   Mist
1:28 PM 33.8 °F - 33.8 °F 100% 30.15 in 0.5 mi Calm Calm - N/A Fog Fog
1:37 PM 33.8 °F - 33.8 °F 100% 30.15 in 0.2 mi Calm Calm - N/A Fog Fog
1:48 PM 33.8 °F - 33.8 °F 100% 30.15 in 0.2 mi Calm Calm - N/A Fog Fog
1:53 PM 34.0 °F - 33.1 °F 96% 30.15 in 0.2 mi Calm Calm - N/A Fog Fog
2:08 PM 35.6 °F - 33.8 °F 93% 30.15 in 1.0 mi Calm Calm - N/A   Overcast
2:28 PM 35.6 °F - 33.8 °F 93% 30.16 in 6.0 mi Calm Calm - N/A   Overcast
2:53 PM 35.1 °F - 34.0 °F 96% 30.16 in 6.0 mi Calm Calm - N/A   Overcast
2:57 PM 35.6 °F - 33.8 °F 93% 30.16 in 1.8 mi Calm Calm - N/A   Mostly Cloudy
3:02 PM 33.8 °F - 33.8 °F 100% 30.16 in 0.8 mi Calm Calm - N/A   Scattered Clouds
3:15 PM 33.8 °F - 33.8 °F 100% 30.17 in 1.2 mi Calm Calm - N/A   Mostly Cloudy
3:20 PM 33.8 °F - 32.0 °F 93% 30.17 in 0.8 mi Calm Calm - N/A   Mist
3:25 PM 33.8 °F - 32.0 °F 93% 30.17 in 0.5 mi Calm Calm - N/A Fog Fog
3:39 PM 32.0 °F - 32.0 °F 100% 30.18 in 0.2 mi Calm Calm - N/A Fog Fog
3:53 PM 30.9 °F - 30.9 °F 100% 30.18 in 0.2 mi Calm Calm - N/A Fog Light Freezing Fog
3:57 PM 32.0 °F - 30.2 °F 93% 30.18 in 6.0 mi Calm Calm - N/A   Mostly Cloudy
4:53 PM 30.0 °F - 28.9 °F 96% 30.20 in 10.0 mi Calm Calm - N/A   Scattered Clouds
5:15 PM 30.2 °F - 28.4 °F 93% 30.20 in 1.8 mi Calm Calm - N/A   Scattered Clouds
5:22 PM 30.2 °F 26.7 °F 28.4 °F 93% 30.21 in 0.8 mi South 3.5 mph - N/A   Scattered Clouds
5:30 PM 28.4 °F - 28.4 °F 100% 30.21 in 0.5 mi Calm Calm - N/A Fog Light Freezing Fog
5:40 PM 28.4 °F - 28.4 °F 100% 30.21 in 0.5 mi Calm Calm - N/A Fog Light Freezing Fog
5:47 PM 30.2 °F - 28.4 °F 93% 30.22 in 1.0 mi Calm Calm - N/A   Mist
5:53 PM 30.0 °F - 28.9 °F 96% 30.22 in 2.5 mi Calm Calm - N/A   Overcast
6:08 PM 30.2 °F 26.7 °F 28.4 °F 93% 30.22 in 0.8 mi East 3.5 mph - N/A   Mist
6:14 PM 30.2 °F - 28.4 °F 93% 30.22 in 0.2 mi Calm Calm - N/A Fog Light Freezing Fog
6:34 PM 30.2 °F - 28.4 °F 93% 30.22 in 0.5 mi Calm Calm - N/A Fog Light Freezing Fog
6:39 PM 30.2 °F - 28.4 °F 93% 30.23 in 0.8 mi Calm Calm - N/A   Mist
6:53 PM 30.0 °F - 28.0 °F 92% 30.23 in 0.5 mi Calm Calm - N/A Fog Light Freezing Fog
7:01 PM 30.2 °F - 28.4 °F 93% 30.23 in 1.0 mi Calm Calm - N/A   Mist
7:14 PM 30.2 °F - 28.4 °F 93% 30.23 in 3.0 mi Calm Calm - N/A   Overcast
7:45 PM 30.2 °F - 28.4 °F 93% 30.24 in 10.0 mi Calm Calm - N/A   Scattered Clouds
7:53 PM 30.0 °F - 28.0 °F 92% 30.24 in 10.0 mi Calm Calm - N/A   Scattered Clouds
8:42 PM 30.2 °F - 28.4 °F 93% 30.26 in 10.0 mi Calm Calm - N/A   Overcast
9:53 PM 30.0 °F - 28.9 °F 96% 30.25 in 10.0 mi Calm Calm - N/A   Overcast
10:53 PM 30.9 °F - 30.0 °F 96% 30.26 in 10.0 mi Calm Calm - N/A   Overcast
11:53 PM 32.0 °F - 30.9 °F 96% 30.25 in 10.0 mi Calm Calm - N/A   Overcast